Other Surface Observations
Issued by NWS Upton, NY

Home | Current Version | Previous Version | Text Only | Print | Product List | Glossary On
Versions: 1 2 3 4 5 6 7 8 9 10 11 12 13 14 15 16 17 18 19 20 21 22 23 24 25 26 27 28 29 30 31 32 33 34 35 36 37 38 39 40 41 42 43 44 45 46 47 48 49 50
000
SXUS51 KOKX 292357
OSOOKX
NEW YORK CITY METROPOLITAN AREA WEATHER ROUNDUP
National Weather Service New York NY
800 PM EDT WED MAR 29 2017

CITY           SKY/WX    TMP DP  RH WIND       PRES   REMARKS
Central Park   CLEAR     51  23  33 N9G20     30.16R
LaGuardia APRT PTCLDY    53  25  33 N13       30.14R
Kennedy INTL   PTCLDY    51  25  36 N15       30.14R
Newark Liberty PTCLDY    52  23  32 NW17      30.15R
Teterboro APRT CLEAR     51  24  34 N13G25    30.14R
Wall St Helipt CLEAR     54  27  35 VRB3      30.14R

>>>>>>>>>>>>>>>>>>>>>>>>>>>>>>>>> KEY <<<<<<<<<<<<<<<<<<<<<<<<<<<<<<<
> SKY/WX - SKY CONDITION/PRESENT    : R : WCI - WIND CHILL INDEX    <
>          WEATHER                  : E : VSB - VISIBILITY IN MILES <
> TMP    - TEMPERATURE IN DEG F     : M : HX  - HEAT INDEX          <
> DP     - DEW POINT TEMPERATURE    : A : TC  - TEMPERATURE IN      <
> RH     - RELATIVE HUMIDITY        : R :       CELSIUS             <
> WIND   - DIRECTION/SPEED (MPH)    : K : VRB - VARIABLE WIND  DIR  <
> PRES   - PRESSURE (IN HG)         : S :                           <
>>>>>>>>>>>>>>>>>>>>>>>>>>>>>>>>> KEY <<<<<<<<<<<<<<<<<<<<<<<<<<<<<<<



USA.gov is the U.S. government's official web portal to all federal, state and local government web resources and services.